Home   Weather   Nuuk   Past weeks
Flag for Greenland

Past Weather in Nuuk, Greenland — Yesterday and Last 2 Weeks

Now
48 °F

Scattered clouds.


Feels Like: 44 °F
Forecast: N/A
Wind: 9 mph from North

Location: Godthaab / Nuuk

Current Time: Jul 22, 2019 at 8:48:48 pm

Latest Report: Jul 22, 2019 at 7:50 pm


Visibility: N/A

Pressure: 29.77 "Hg

Humidity: 87%

Dew Point: 45 °F

Location of NuukLocation

Past Weather in Nuuk — Graph

°F

Nuuk Temperature Yesterday

Maximum temperature yesterday: 52 °F (at 5:50 pm)
Minimum temperature yesterday: 41 °F (at 5:50 am)
Average temperature yesterday: 46 °F

High & Low Weather Summary for the Past Weeks

 TemperatureHumidityPressure
High72 °F (Jul 8, 3:50 pm)100% (Jul 9, 11:50 pm)30.07 "Hg (Jul 9, 11:50 pm)
Low41 °F (Jul 10, 11:50 pm)25% (Jul 8, 4:50 pm)29.68 "Hg (Jul 16, 8:50 pm)
Average49 °F81%29.88 "Hg
* Reported Jul 7 6:50 pm — Jul 22 6:50 pm, Nuuk. Weather by CustomWeather, © 2019

Note: Actual official high and low records may vary slightly from our data, if they occured in-between our weather recording intervals... More about our weather records

Advertising

Nuuk Weather History for the Previous 24 Hours

Scroll right to see more
 ConditionsComfort  
Time TempWeatherWind HumidityBarometerVisibility
6:50 pm
Mon, Jul 22
50 °FPassing clouds.10 mph82%29.77 "HgN/A
5:50 pm54 °FPassing clouds.9 mph72%29.77 "HgN/A
4:50 pm55 °FPassing clouds.8 mph67%29.80 "HgN/A
3:50 pm55 °FPassing clouds.10 mph67%29.80 "HgN/A
2:50 pm55 °FPassing clouds.8 mph67%29.80 "HgN/A
1:50 pm55 °FPassing clouds.6 mph67%29.83 "HgN/A
12:50 pm54 °FScattered clouds.7 mph72%29.83 "HgN/A
11:50 am52 °FScattered clouds.7 mph77%29.86 "HgN/A
10:50 am48 °FScattered clouds.9 mph87%29.86 "HgN/A
9:50 am45 °FFog.9 mph93%29.86 "Hg1 mi
8:50 am43 °FFog.10 mph100%29.89 "Hg1 mi
7:50 am41 °FFog.8 mph100%29.89 "Hg1 mi
6:50 am41 °FFog.9 mph100%29.89 "Hg0 mi
6:20 am41 °FPartly sunny.7 mph100%29.89 "Hg1 mi
5:50 am41 °FFog.7 mph100%29.89 "Hg1 mi
4:50 am41 °FFog.7 mph100%29.92 "Hg1 mi
3:50 am41 °FFog.9 mph100%29.89 "Hg0 mi
2:50 am41 °FFog.8 mph100%29.92 "Hg1 mi
1:50 am43 °FFog.3 mph100%29.92 "Hg1 mi
12:50 am43 °FFog.1 mph93%29.92 "Hg0 mi
11:50 pm
Sun, Jul 21
43 °FFog.2 mph93%29.92 "Hg2 mi
10:50 pm45 °FQuite cool.3 mph93%29.92 "HgN/A
9:50 pm46 °FCool.3 mph87%29.92 "HgN/A
8:50 pm50 °FCool.6 mph76%29.92 "HgN/A
Weather by CustomWeather, © 2019

See weather overview